Location: Cheyres
(46.8153°N, 6.7877°E)
Time: 23:44:45
(UTC+00:00)

FENGYUN 1C DEB - Pass Details

Date: 03 December 2021
Orbit: 843 x 915 km, 99.0° (Epoch: 21 January)

Event Time Altitude Azimuth Distance (km) Brightness Sun altitude
Exits shadow 18:31:49 24° 2° (N) 1,713 ? -27.6°
Drops below altitude 10° 18:33:59 10° 353° (N) 2,499 ? -28.0°
Sets 18:36:23 0° 350° (N) 3,431 ? -28.4°
